This is the latest recevied weather packets stored in our database for station/object IU7URP-13. If no packets are shown the sender has not sent any weather packets the latest 10 day(s).
| Time | Temp. | Humidity | Pressure | Rain* | Wind** | Luminosity | Snow |
|---|---|---|---|---|---|---|---|
| 1777876786 | 24.44° C | 68% | 1021.7 hPa | - | - | - | - |
| 1777876356 | 23.33° C | 78% | 1021.6 hPa | - | - | - | - |
| 1777875798 | 23.33° C | 79% | 1021.5 hPa | - | - | - | - |
| 1777874596 | 22.78° C | 99% | 1021.7 hPa | - | - | - | - |
| 1777873395 | 20.56° C | 99% | 1021.7 hPa | - | - | - | - |
| 1777872194 | 17.78° C | 99% | 1021.8 hPa | - | - | - | - |
| 1777870992 | 16.11° C | 99% | 1021.7 hPa | - | - | - | - |
| 1777869791 | 18.89° C | 99% | 1021.3 hPa | - | - | - | - |
| 1777868590 | 16.11° C | 99% | 1021.3 hPa | - | - | - | - |
| 1777867388 | 14.44° C | 99% | 1021.2 hPa | - | - | - | - |
| 1777866187 | 13.33° C | 99% | 1021.1 hPa | - | - | - | - |
| 1777864986 | 13.33° C | 99% | 1021.1 hPa | - | - | - | - |
| 1777863784 | 13.33° C | 99% | 1021 hPa | - | - | - | - |
| 1777862583 | 13.33° C | 99% | 1021 hPa | - | - | - | - |
| 1777861382 | 13.33° C | 99% | 1021 hPa | - | - | - | - |
| 1777860180 | 13.33° C | 99% | 1021 hPa | - | - | - | - |
| 1777858979 | 13.33° C | 99% | 1021 hPa | - | - | - | - |
| 1777857778 | 13.33° C | 99% | 1021 hPa | - | - | - | - |
| 1777856576 | 12.78° C | 99% | 1020.9 hPa | - | - | - | - |
| 1777855375 | 12.78° C | 99% | 1021 hPa | - | - | - | - |
| 1777855300 | 12.78° C | 99% | 1021 hPa | - | - | - | - |
| 1777854098 | 13.33° C | 99% | 1021 hPa | - | - | - | - |
| 1777852897 | 12.22° C | 99% | 1021.1 hPa | - | - | - | - |
| 1777851696 | 12.78° C | 99% | 1021 hPa | - | - | - | - |
| 1777850494 | 12.78° C | 99% | 1021.1 hPa | - | - | - | - |
* Rain since midnight (hover to see other rain measurements)
** Current wind speed in m/s (hover to see current wind gust speed)